KE6LRO Weather Reports


Display with metric or nautical units.
time (UTC)temp
F
wind
direction
speed
MPH
gust
MPH
rain 1hr
in
rain 24hr
in
rain mn
in
humidity
%
barometer
mb
20260904141218 47 1 0.0 0.0 0.00 0.23 0.23 99 1018.5
20260904140714 47 2 0.0 0.0 0.00 0.23 0.23 99 1018.8
20260904140209 47 35 0.0 0.0 0.00 0.23 0.23 99 1018.6
20260904135707 47 35 0.0 0.0 0.00 0.23 0.23 99 1018.6
20260904135203 47 35 0.0 0.0 0.00 0.23 0.23 99 1018.3
20260904134659 47 33 1.0 1.0 0.00 0.23 0.23 99 1018.1
20260904134158 47 43 0.0 0.0 0.00 0.23 0.23 99 1018.3
20260904133653 47 92 0.0 0.0 0.00 0.23 0.23 99 1018.1
20260904133149 47 93 0.0 0.0 0.00 0.23 0.23 99 1018.2
20260904132648 47 150 0.0 0.0 0.00 0.23 0.23 99 1018.0
20260904132143 47 120 0.0 1.0 0.00 0.23 0.23 99 1018.2
20260904131642 47 159 0.0 0.0 0.00 0.23 0.23 99 1017.9
20260904131139 47 288 0.0 0.0 0.00 0.23 0.23 99 1018.1
20260904130633 47 287 0.0 1.0 0.00 0.23 0.23 99 1017.9
20260904130132 47 125 2.0 2.0 0.00 0.23 0.23 99 1018.0
20260904125629 47 118 0.0 0.0 0.00 0.23 0.23 99 1018.0
20260904125124 47 105 0.0 0.0 0.00 0.23 0.23 99 1017.8
20260904124619 47 137 2.0 2.0 0.07 0.23 0.23 99 1017.3
20260904124115 47 203 0.0 1.0 0.07 0.23 0.23 99 1017.2
20260904123615 47 267 1.0 3.0 0.00 0.22 0.22 99 1017.3
20260904123110 47 186 2.0 3.0 0.05 0.22 0.22 99 1017.2
20260904122605 47 181 1.0 3.0 0.05 0.22 0.22 99 1017.6
20260904122100 47 171 1.0 3.0 0.00 0.21 0.21 99 1017.3
20260904121555 47 149 1.0 2.0 0.00 0.21 0.21 99 1017.3
20260904121051 47 222 0.0 1.0 0.07 0.21 0.21 99 1017.3
20260904120548 47 156 0.0 1.0 0.12 0.21 0.21 99 1017.3
20260904120043 47 209 0.0 2.0 0.05 0.20 0.20 99 1017.1
20260904115538 47 181 3.0 5.0 0.07 0.19 0.19 99 1017.6
20260904115033 47 144 1.0 2.0 0.12 0.18 0.18 99 1017.6
20260904114527 48 193 0.0 1.0 0.12 0.17 0.17 99 1017.4
20260904114022 48 197 2.0 3.0 0.12 0.16 0.16 99 1017.4
20260904113522 48 185 2.0 5.0 0.14 0.15 0.15 99 1017.3
20260904113016 48 174 3.0 3.0 0.19 0.14 0.14 99 1017.4
20260904112511 48 123 4.0 5.0 0.17 0.13 0.13 99 1017.3
20260904112007 48 198 1.0 3.0 0.12 0.10 0.10 99 1017.3
20260904111503 48 233 1.0 1.0 0.05 0.09 0.09 99 1017.6
20260904110958 48 232 1.0 2.0 0.07 0.08 0.08 99 1017.4
20260904110457 48 213 1.0 3.0 0.05 0.07 0.07 99 1017.4
20260904105952 48 173 1.0 1.0 0.12 0.07 0.07 98 1017.4
20260904105452 48 205 0.0 1.0 0.12 0.06 0.06 98 1017.3
20260904104947 48 134 1.0 1.0 0.12 0.05 0.05 97 1017.2
20260904104442 49 158 0.0 1.0 0.14 0.04 0.04 97 1017.6
20260904103939 49 176 1.0 3.0 0.07 0.03 0.03 95 1017.1
20260904103434 48 190 1.0 6.0 0.05 0.02 0.02 97 1016.8
20260904102930 48 224 3.0 6.0 0.05 0.02 0.02 97 1016.6
20260904102425 48 135 1.0 2.0 0.00 0.01 0.01 99 1016.7
20260904101915 47 312 0.0 0.0 0.00 0.01 0.01 99 1016.7
20260904101412 47 311 0.0 0.0 0.00 0.01 0.01 99 1016.7
20260904100907 47 313 1.0 1.0 0.00 0.01 0.01 99 1016.3
20260904100403 47 311 1.0 1.0 0.00 0.01 0.01 99 1016.1
20260904095857 47 156 1.0 1.0 0.00 0.01 0.01 99 1016.0
20260904095351 47 96 0.0 0.0 0.00 0.01 0.01 99 1015.9
20260904094846 47 197 1.0 1.0 0.00 0.01 0.01 99 1015.9
20260904094342 47 172 1.0 1.0 0.00 0.01 0.01 98 1015.4
20260904093838 47 141 1.0 3.0 0.00 0.01 0.01 98 1015.4
20260904093333 46 177 2.0 2.0 0.07 0.01 0.01 98 1015.1
20260904092828 46 278 0.0 0.0 0.07 0.01 0.01 98 1014.8
20260904092325 46 97 1.0 1.0 0.00 0.00 0.00 98 1014.9
20260904091820 46 284 0.0 0.0 0.00 0.00 0.00 98 1014.9
20260904091315 46 43 0.0 0.0 0.00 0.00 0.00 98 1014.9
20260904090809 46 17 0.0 0.0 0.00 0.00 0.00 98 1015.0
20260904090306 46 16 0.0 0.0 0.00 0.00 0.00 99 1014.8
20260904085755 46 283 1.0 1.0 0.00 0.00 0.00 99 1014.8
20260904085250 46 9 0.0 0.0 0.00 0.00 0.00 99 1014.4
20260904084744 46 319 1.0 1.0 0.00 0.00 0.00 99 1014.4
20260904084240 46 67 0.0 0.0 0.00 0.00 0.00 99 1014.0
20260904083736 46 146 0.0 0.0 0.00 0.00 0.00 99 1014.2
20260904083233 45 179 2.0 2.0 0.00 0.00 0.00 99 1014.0
20260904082733 45 100 1.0 1.0 0.00 0.00 0.00 99 1014.2
20260904082228 45 231 0.0 1.0 0.00 0.00 0.00 99 1013.7
20260904081723 45 159 0.0 0.0 0.00 0.00 0.00 99 1013.6
20260904081218 45 162 0.0 0.0 0.00 0.00 0.00 99 1013.4
20260904080714 45 177 0.0 0.0 0.00 0.00 0.00 99 1013.0
20260904080210 45 179 0.0 0.0 0.00 0.00 0.00 99 1013.0
20260904075706 44 113 0.0 0.0 0.00 0.00 0.00 99 1012.8
20260904075201 45 102 0.0 0.0 0.00 0.00 0.00 99 1012.9
20260904074700 44 102 0.0 0.0 0.00 0.00 0.00 99 1013.0
20260904074154 44 266 0.0 0.0 0.00 0.00 0.00 99 1013.0
20260904073650 44 265 1.0 2.0 0.00 0.00 0.00 99 1013.3
20260904073146 44 84 0.0 0.0 0.00 0.00 0.00 99 1013.2
20260904072641 45 77 0.0 1.0 0.00 0.00 0.00 99 1013.0
20260904072136 45 282 0.0 1.0 0.00 0.00 0.00 99 1012.9
20260904071626 45 71 0.0 0.0 0.00 0.00 0.00 99 1013.0
20260904071121 45 122 0.0 0.0 0.00 0.00 0.00 99 1013.3
20260904070620 45 122 0.0 1.0 0.00 0.00 0.00 98 1013.2
20260904070115 45 160 0.0 1.0 0.00 0.00 0.00 98 1013.2
20260904065610 46 94 0.0 1.0 0.00 0.00 0.00 98 1013.1
20260904065107 46 66 0.0 0.0 0.00 0.00 0.00 98 1013.1
20260904064602 46 300 0.0 0.0 0.00 0.00 0.00 98 1013.2
20260904064101 46 300 0.0 0.0 0.00 0.00 0.00 98 1013.3
20260904063558 46 300 0.0 0.0 0.00 0.00 0.00 98 1013.2
20260904063053 47 299 0.0 0.0 0.00 0.00 0.00 97 1013.3
20260904062550 47 308 0.0 0.0 0.00 0.00 0.00 97 1013.1
20260904062049 48 306 0.0 0.0 0.00 0.00 0.00 97 1013.1
20260904061545 48 307 0.0 0.0 0.00 0.00 0.00 96 1013.1
20260904061041 48 306 0.0 1.0 0.00 0.00 0.00 96 1013.2
20260904060537 48 118 0.0 0.0 0.00 0.00 0.00 96 1013.4
20260904060033 48 117 0.0 0.0 0.00 0.00 0.00 96 1013.4
20260904055528 48 119 0.0 0.0 0.00 0.06 0.06 96 1013.4
20260904055024 48 79 0.0 0.0 0.00 0.06 0.06 96 1013.6
20260904054519 48 60 0.0 0.0 0.00 0.06 0.06 96 1013.6
20260904054015 49 59 0.0 0.0 0.00 0.06 0.06 95 1013.8
20260904053514 49 316 1.0 2.0 0.00 0.06 0.06 95 1013.7
20260904053010 49 225 0.0 1.0 0.00 0.06 0.06 95 1013.7
20260904052506 49 57 0.0 0.0 0.00 0.06 0.06 95 1013.7
20260904052002 49 127 1.0 1.0 0.00 0.06 0.06 95 1013.8
20260904051459 49 210 0.0 0.0 0.00 0.06 0.06 96 1014.0
20260904050957 49 169 1.0 1.0 0.00 0.06 0.06 96 1013.9
20260904050454 49 314 3.0 3.0 0.00 0.06 0.06 96 1014.0
20260904045950 49 115 0.0 0.0 0.00 0.06 0.06 95 1013.9
20260904045450 49 261 0.0 0.0 0.00 0.06 0.06 95 1014.1
20260904044944 49 44 0.0 0.0 0.00 0.06 0.06 95 1014.3
20260904044440 49 45 0.0 0.0 0.00 0.06 0.06 94 1014.3
20260904043936 49 69 0.0 0.0 0.00 0.06 0.06 94 1014.4
20260904043433 50 330 0.0 0.0 0.00 0.06 0.06 93 1014.7
20260904042928 50 313 0.0 0.0 0.00 0.06 0.06 92 1014.7
20260904042424 50 66 0.0 0.0 0.00 0.06 0.06 92 1014.8
20260904041919 50 67 0.0 0.0 0.00 0.06 0.06 92 1015.2
20260904041415 50 34 0.0 0.0 0.00 0.06 0.06 91 1015.1
20260904040906 50 101 0.0 0.0 0.00 0.06 0.06 91 1015.3
20260904040406 50 235 0.0 0.0 0.00 0.06 0.06 91 1015.4
20260904035902 49 196 0.0 0.0 0.00 0.06 0.06 92 1015.1
20260904035358 49 115 0.0 0.0 0.00 0.06 0.06 93 1015.1
20260904034857 49 114 0.0 0.0 0.00 0.06 0.06 93 1015.0
20260904034352 49 116 0.0 0.0 0.00 0.06 0.06 92 1014.9
20260904033848 49 88 0.0 0.0 0.00 0.06 0.06 92 1014.9
20260904033344 49 139 0.0 0.0 0.00 0.06 0.06 93 1015.1
20260904032840 49 119 0.0 0.0 0.00 0.06 0.06 93 1015.1
20260904032340 49 49 0.0 0.0 0.00 0.06 0.06 93 1015.1
20260904031834 49 49 0.0 0.0 0.00 0.06 0.06 92 1015.2
20260904031329 50 49 0.0 0.0 0.00 0.06 0.06 91 1015.3
20260904030825 50 49 0.0 0.0 0.00 0.06 0.06 91 1015.4
20260904030321 50 49 0.0 0.0 0.00 0.06 0.06 90 1015.3
20260904025817 50 49 0.0 0.0 0.00 0.06 0.06 90 1015.2
20260904025312 51 49 0.0 0.0 0.00 0.06 0.06 88 1015.3
20260904024806 51 49 0.0 0.0 0.00 0.06 0.06 87 1015.4
20260904024301 51 48 0.0 0.0 0.00 0.06 0.06 88 1015.6
20260904023758 51 48 0.0 0.0 0.00 0.06 0.06 88 1015.4
20260904023254 52 49 0.0 0.0 0.00 0.06 0.06 88 1015.4
20260904022753 52 49 0.0 0.0 0.00 0.06 0.06 87 1015.6
20260904022250 53 51 0.0 0.0 0.00 0.06 0.06 86 1015.4
20260904021747 53 51 0.0 0.0 0.00 0.06 0.06 85 1015.6
20260904021247 54 50 0.0 0.0 0.00 0.06 0.06 84 1015.6
20260904020742 55 50 0.0 0.0 0.00 0.06 0.06 84 1015.3
20260904020242 55 63 0.0 0.0 0.00 0.06 0.06 82 1015.4
20260904015740 56 71 0.0 0.0 0.00 0.06 0.06 82 1015.4
20260904015236 56 183 0.0 0.0 0.00 0.06 0.06 81 1015.6
20260904014734 57 258 0.0 0.0 0.00 0.06 0.06 79 1015.7
20260904014230 57 258 0.0 0.0 0.00 0.06 0.06 79 1015.6
20260904013726 57 258 0.0 0.0 0.00 0.06 0.06 79 1015.7
20260904013222 57 258 0.0 0.0 0.00 0.06 0.06 79 1015.7
20260904012718 57 258 0.0 0.0 0.00 0.06 0.06 76 1015.9
20260904012217 57 259 0.0 0.0 0.00 0.06 0.06 78 1015.6
20260904011716 58 259 0.0 0.0 0.00 0.06 0.06 79 1015.7
20260904011212 58 259 0.0 0.0 0.00 0.06 0.06 78 1015.9
20260904010706 58 259 0.0 0.0 0.00 0.06 0.06 77 1015.8
20260904010204 59 259 0.0 0.0 0.00 0.06 0.06 75 1015.8
20260904005658 60 258 0.0 0.0 0.00 0.06 0.06 71 1015.9
20260904005154 61 258 0.0 0.0 0.00 0.06 0.06 69 1015.9
20260904004650 61 258 0.0 0.0 0.00 0.06 0.06 67 1016.3
20260904004149 61 259 0.0 1.0 0.00 0.06 0.06 67 1016.3
20260904003645 61 258 0.0 1.0 0.00 0.06 0.06 66 1016.4
20260904003141 61 223 1.0 1.0 0.00 0.06 0.06 66 1016.6
20260904002637 61 197 0.0 0.0 0.00 0.06 0.06 65 1016.7
20260904002132 61 171 0.0 0.0 0.00 0.06 0.06 65 1016.9
20260904001627 61 182 1.0 1.0 0.00 0.06 0.06 64 1016.8
20260904001126 61 235 0.0 0.0 0.00 0.06 0.06 63 1016.9
20260904000621 61 263 0.0 0.0 0.00 0.06 0.06 65 1016.8
20260904000117 61 236 0.0 0.0 0.00 0.06 0.06 65 1016.9
20260903235616 61 102 0.0 1.0 0.00 0.06 0.06 64 1016.9
20260903235113 62 281 1.0 2.0 0.00 0.06 0.06 63 1016.7
20260903234607 63 294 2.0 3.0 0.00 0.06 0.06 62 1016.9
20260903234103 61 201 2.0 3.0 0.00 0.06 0.06 63 1016.9
20260903233559 62 213 2.0 2.0 0.00 0.06 0.06 63 1017.2
20260903233054 61 172 1.0 6.0 0.00 0.06 0.06 63 1017.0
20260903232549 60 238 2.0 3.0 0.00 0.06 0.06 65 1017.0
20260903232044 59 190 3.0 5.0 0.00 0.06 0.06 65 1017.2
20260903231533 59 186 3.0 3.0 0.00 0.06 0.06 66 1017.3
20260903231027 59 181 3.0 5.0 0.00 0.06 0.06 66 1017.4
20260903230524 59 167 3.0 7.0 0.00 0.06 0.06 64 1017.6
20260903230022 60 162 3.0 6.0 0.00 0.06 0.06 66 1017.3
20260903225520 60 190 3.0 5.0 0.00 0.06 0.06 66 1017.4
20260903225016 60 192 3.0 9.0 0.00 0.06 0.06 66 1017.4
20260903224512 60 187 4.0 5.0 0.00 0.06 0.06 67 1017.7
20260903224008 60 159 2.0 2.0 0.00 0.06 0.06 65 1017.4
20260903223507 59 187 2.0 5.0 0.00 0.06 0.06 67 1017.7
20260903223007 61 264 4.0 8.0 0.00 0.06 0.06 63 1017.4
20260903222502 61 202 1.0 3.0 0.00 0.06 0.06 59 1017.6
20260903222001 61 44 0.0 0.0 0.00 0.06 0.06 58 1017.6
20260903221455 61 54 0.0 3.0 0.00 0.06 0.06 58 1017.4
20260903220952 61 352 2.0 5.0 0.00 0.06 0.06 59 1017.4
20260903220447 61 39 3.0 8.0 0.00 0.06 0.06 61 1017.2
20260903215944 61 305 3.0 7.0 0.00 0.06 0.06 61 1017.3
20260903215441 61 27 0.0 3.0 0.00 0.06 0.06 62 1017.3
20260903214939 61 20 4.0 8.0 0.00 0.06 0.06 62 1017.2
20260903214436 62 357 4.0 9.0 0.00 0.06 0.06 62 1017.3
20260903213935 63 355 4.0 10.0 0.00 0.06 0.06 60 1017.3
20260903213430 63 16 3.0 6.0 0.00 0.06 0.06 60 1017.3
20260903212926 63 331 4.0 7.0 0.00 0.06 0.06 60 1017.4
20260903212422 63 318 4.0 5.0 0.00 0.06 0.06 59 1017.4
20260903211921 63 332 4.0 5.0 0.00 0.06 0.06 59 1017.2
20260903211417 62 6 4.0 9.0 0.00 0.06 0.06 61 1017.0
20260903210914 62 37 4.0 6.0 0.00 0.06 0.06 63 1017.1
20260903210413 61 2 3.0 5.0 0.00 0.06 0.06 63 1017.2
20260903205908 62 311 3.0 6.0 0.00 0.06 0.06 62 1017.2
20260903205408 62 53 0.0 3.0 0.00 0.06 0.06 64 1017.3
20260903204902 61 9 4.0 5.0 0.00 0.06 0.06 66 1017.3
20260903204359 61 40 0.0 2.0 0.00 0.06 0.06 68 1017.2
20260903203854 61 357 2.0 5.0 0.00 0.06 0.06 68 1017.4
20260903203350 61 289 0.0 1.0 0.00 0.06 0.06 69 1017.2
20260903202849 62 321 1.0 2.0 0.00 0.06 0.06 69 1017.3
20260903202346 62 301 0.0 1.0 0.00 0.06 0.06 69 1017.4
20260903201845 61 114 1.0 3.0 0.00 0.06 0.06 71 1017.3
20260903201341 60 85 1.0 5.0 0.00 0.06 0.06 75 1017.3
20260903200839 60 120 1.0 2.0 0.05 0.06 0.06 81 1017.4
20260903200335 58 220 2.0 2.0 0.17 0.06 0.06 76 1017.4
20260903195830 58 226 1.0 2.0 0.19 0.05 0.05 86 1017.6
20260903195326 59 233 2.0 2.0 0.07 0.03 0.03 76 1017.4
20260903194820 59 337 1.0 2.0 0.00 0.02 0.02 74 1017.3
20260903194316 59 29 3.0 6.0 0.00 0.02 0.02 70 1017.2
20260903193812 59 353 3.0 5.0 0.00 0.02 0.02 70 1017.3
20260903193308 60 24 5.0 7.0 0.00 0.02 0.02 69 1017.1
20260903192803 60 55 1.0 7.0 0.00 0.02 0.02 70 1017.1
20260903192258 60 34 5.0 8.0 0.00 0.02 0.02 69 1017.1
20260903191754 61 30 1.0 3.0 0.00 0.02 0.02 69 1017.3
20260903191250 60 39 3.0 8.0 0.00 0.02 0.02 70 1017.3
20260903190744 59 68 0.0 1.0 0.00 0.02 0.02 72 1017.4
20260903190244 59 31 3.0 3.0 0.00 0.02 0.02 73 1017.3
20260903185739 59 22 2.0 3.0 0.00 0.02 0.02 73 1017.6
20260903185238 58 354 3.0 5.0 0.00 0.02 0.02 73 1017.3
20260903184735 58 5 4.0 7.0 0.00 0.02 0.02 73 1017.3
20260903184231 58 40 5.0 6.0 0.00 0.02 0.02 73 1017.4
20260903183726 58 24 3.0 7.0 0.00 0.02 0.02 72 1017.4
20260903183220 59 4 4.0 5.0 0.00 0.02 0.02 72 1017.4
20260903182719 59 358 1.0 6.0 0.00 0.02 0.02 72 1017.7
20260903182215 59 330 3.0 5.0 0.00 0.02 0.02 72 1017.4
20260903181713 59 19 3.0 3.0 0.00 0.02 0.02 70 1017.4
20260903181203 59 346 1.0 5.0 0.00 0.02 0.02 70 1017.7
20260903180659 59 327 3.0 3.0 0.00 0.02 0.02 70 1017.3
20260903180157 58 314 2.0 2.0 0.00 0.02 0.02 71 1017.3
20260903175657 59 30 2.0 5.0 0.00 0.02 0.02 68 1017.3
20260903175151 58 47 1.0 2.0 0.00 0.02 0.02 69 1017.3
20260903174651 59 20 2.0 3.0 0.00 0.02 0.02 68 1017.4
20260903174146 59 30 0.0 3.0 0.00 0.02 0.02 68 1017.3
20260903173641 59 35 0.0 1.0 0.00 0.02 0.02 69 1017.6
20260903173137 60 10 3.0 3.0 0.00 0.02 0.02 65 1017.7
20260903172637 59 46 0.0 2.0 0.00 0.02 0.02 68 1017.6
20260903172132 60 8 4.0 6.0 0.00 0.02 0.02 68 1017.6
20260903171632 58 281 1.0 2.0 0.00 0.02 0.02 69 1017.3
20260903171128 57 326 5.0 7.0 0.00 0.02 0.02 72 1017.6
20260903170627 58 255 1.0 5.0 0.00 0.02 0.02 72 1017.8
20260903170123 57 312 3.0 3.0 0.00 0.02 0.02 83 1017.6
20260903165620 55 31 1.0 1.0 0.00 0.02 0.02 87 1017.4
20260903165115 55 19 0.0 0.0 0.00 0.02 0.02 91 1017.8
20260903164610 53 6 0.0 1.0 0.00 0.02 0.02 93 1017.8
20260903164106 53 11 0.0 2.0 0.00 0.02 0.02 95 1017.9
20260903163600 53 329 2.0 2.0 0.00 0.02 0.02 94 1017.8
20260903163056 53 319 2.0 2.0 0.00 0.02 0.02 95 1017.6
20260903162553 53 27 1.0 1.0 0.00 0.02 0.02 94 1017.9
20260903162048 53 47 0.0 0.0 0.00 0.02 0.02 94 1017.7
20260903161543 52 164 0.0 0.0 0.00 0.02 0.02 95 1017.9
20260903161039 51 180 0.0 0.0 0.00 0.02 0.02 96 1017.4
20260903160538 51 175 0.0 2.0 0.00 0.02 0.02 97 1017.7
20260903160033 50 155 0.0 1.0 0.00 0.02 0.02 98 1017.6
20260903155531 50 184 0.0 0.0 0.00 0.02 0.02 98 1017.6
20260903155027 50 173 0.0 1.0 0.00 0.02 0.02 98 1017.7
20260903154524 50 293 0.0 2.0 0.00 0.02 0.02 99 1017.7
20260903154020 50 222 0.0 1.0 0.00 0.02 0.02 99 1017.6
20260903153514 50 156 1.0 2.0 0.00 0.02 0.02 99 1017.6
20260903153011 50 170 0.0 1.0 0.00 0.02 0.02 99 1017.6
20260903152507 49 92 0.0 0.0 0.00 0.02 0.02 99 1017.3
20260903152003 48 112 0.0 1.0 0.00 0.02 0.02 99 1017.6
20260903151502 48 75 0.0 0.0 0.00 0.02 0.02 99 1017.4
20260903150957 47 172 0.0 0.0 0.00 0.02 0.02 99 1017.4
20260903150457 47 122 0.0 0.0 0.00 0.02 0.02 99 1017.7
20260903145951 46 131 0.0 0.0 0.00 0.02 0.02 99 1017.7
20260903145447 46 121 0.0 0.0 0.00 0.02 0.02 99 1017.7
20260903144942 46 96 0.0 0.0 0.00 0.02 0.02 99 1017.7
20260903144441 46 277 0.0 0.0 0.00 0.02 0.02 99 1017.8
20260903143937 46 260 1.0 1.0 0.00 0.02 0.02 99 1017.7
20260903143433 46 104 0.0 0.0 0.00 0.02 0.02 99 1017.8
20260903142929 46 124 0.0 0.0 0.00 0.02 0.02 99 1017.6
20260903142424 45 114 0.0 1.0 0.00 0.02 0.02 99 1017.4
20260903141920 45 106 0.0 0.0 0.00 0.02 0.02 99 1017.3